DW3200 Weather Reports


Display with metric or nautical units.
time (UTC)temp
F
wind
direction
speed
MPH
gust
MPH
rain 1hr
in
rain 24hr
in
rain mn
in
humidity
%
barometer
mb
20260507101534 47 300 0.0 0.0 0.00 0.00 0.00 86 1012.4
20260507100042 48 300 0.0 0.0 0.00 0.00 0.00 86 1012.3
20260507094513 48 300 1.0 0.0 0.00 0.00 0.00 86 1012.1
20260507093010 49 300 0.0 0.0 0.00 0.00 0.00 84 1011.9
20260507091550 50 300 0.0 0.0 0.00 0.00 0.00 85 1012.1
20260507090047 50 300 0.0 0.0 0.00 0.00 0.00 85 1011.8
20260507084545 51 300 0.0 0.0 0.00 0.00 0.00 84 1011.9
20260507083027 51 300 0.0 0.0 0.00 0.00 0.00 84 1011.8
20260507081507 52 300 0.0 0.0 0.00 0.00 0.00 84 1011.7
20260507080006 51 300 0.0 0.0 0.00 0.00 0.00 84 1011.7
20260507074548 51 300 0.0 0.0 0.00 0.00 0.00 84 1011.6
20260507073046 52 300 0.0 0.0 0.00 0.00 0.00 83 1011.6
20260507071529 53 300 0.0 0.0 0.00 0.00 0.00 83 1011.5
20260507070026 53 300 0.0 0.0 0.00 0.00 0.00 82 1011.6
20260507064506 53 300 0.0 0.0 0.00 0.00 0.00 81 1011.5
20260507063003 53 300 0.0 0.0 0.00 0.00 0.00 80 1011.4
20260507061543 54 300 0.0 0.0 0.00 0.00 0.00 78 1011.3
20260507060043 55 300 0.0 0.0 0.00 0.00 0.00 77 1011.1
20260507054530 56 300 0.0 0.0 0.00 0.00 0.00 76 1011.2
20260507053016 57 300 0.0 0.0 0.00 0.00 0.00 74 1011.2
20260507051606 57 300 0.0 0.0 0.00 0.00 0.00 73 1011.2
20260507050108 58 300 0.0 0.0 0.00 0.00 0.00 72 1011.1
20260507044546 58 300 0.0 0.0 0.00 0.00 0.00 70 1011.2
20260507043032 59 300 0.0 0.0 0.00 0.00 0.00 69 1011.1
20260507041513 60 300 0.0 0.0 0.00 0.00 0.00 67 1011.2
20260507040013 61 300 0.0 0.0 0.00 0.00 0.00 65 1011.2
20260507034551 62 300 0.0 0.0 0.00 0.00 0.00 63 1011.1
20260507033051 63 300 0.0 0.0 0.00 0.00 0.00 59 1011.0
20260507031534 65 300 0.0 0.0 0.00 0.00 0.00 55 1011.0
20260507030037 65 300 0.0 0.0 0.00 0.00 0.00 53 1010.9
20260507024517 66 300 0.0 0.0 0.00 0.00 0.00 51 1011.0
20260507023014 67 300 5.0 0.0 0.00 0.00 0.00 49 1011.0
20260507021623 67 296 5.0 0.0 0.00 0.00 0.00 48 1011.1
20260507020058 68 288 5.0 0.0 0.00 0.00 0.00 47 1010.8
20260507014559 69 291 5.0 0.0 0.00 0.00 0.00 45 1010.9
20260507013038 70 277 6.0 0.0 0.00 0.00 0.00 45 1010.8
20260507011540 70 284 6.0 0.0 0.00 0.00 0.00 44 1010.7
20260507010032 71 293 5.0 0.0 0.00 0.00 0.00 43 1010.7
20260507004522 71 284 5.0 0.0 0.00 0.00 0.00 41 1010.8
20260507003004 71 288 9.0 0.0 0.00 0.00 0.00 43 1010.9
20260507001502 71 288 9.0 0.0 0.00 0.00 0.00 44 1010.7
20260507000044 71 298 10.0 0.0 0.00 0.00 0.00 43 1010.6
20260506234552 72 280 10.0 0.0 0.00 0.00 0.00 44 1010.5
20260506233025 74 293 7.0 0.0 0.00 0.00 0.00 42 1010.6
20260506231527 74 284 6.0 0.0 0.00 0.00 0.00 42 1010.7
20260506230006 73 287 7.0 0.0 0.00 0.00 0.00 41 1011.0
20260506224506 73 291 6.0 0.0 0.00 0.00 0.00 41 1011.3
20260506223055 73 308 6.0 0.0 0.00 0.00 0.00 41 1011.5
20260506221547 73 281 4.0 0.0 0.00 0.00 0.00 41 1011.7
20260506220035 72 289 5.0 0.0 0.00 0.00 0.00 41 1011.9
20260506214532 73 277 5.0 0.0 0.00 0.00 0.00 38 1012.1
20260506213012 72 280 8.0 0.0 0.00 0.00 0.00 42 1012.1
20260506211511 73 274 5.0 0.0 0.00 0.00 0.00 41 1012.2
20260506204602 72 302 4.0 0.0 0.00 0.00 0.00 40 1012.4
20260506203057 73 278 4.0 0.0 0.00 0.00 0.00 39 1012.6
20260506201558 72 282 5.0 0.0 0.00 0.00 0.00 40 1012.7
20260506200109 71 279 5.0 0.0 0.00 0.00 0.00 40 1012.6
20260506194606 71 248 3.0 0.0 0.00 0.00 0.00 41 1012.7
20260506193050 71 285 6.0 0.0 0.00 0.00 0.00 42 1012.9
20260506191549 70 233 4.0 0.0 0.00 0.00 0.00 41 1013.0
20260506190030 70 288 4.0 0.0 0.00 0.00 0.00 43 1013.1
20260506184530 69 218 2.0 0.0 0.00 0.00 0.00 38 1013.2
20260506183011 68 283 3.0 0.0 0.00 0.00 0.00 42 1013.4
20260506181513 69 133 1.0 0.0 0.00 0.00 0.00 42 1013.5
20260506180051 68 143 2.0 0.0 0.00 0.00 0.00 42 1013.5
20260506174548 67 138 2.0 0.0 0.00 0.00 0.00 41 1013.6
20260506173029 66 131 1.0 0.0 0.00 0.00 0.00 41 1013.6
20260506171538 66 128 0.0 0.0 0.00 0.00 0.00 41 1013.6
20260506170008 65 102 1.0 0.0 0.00 0.00 0.00 42 1013.7
20260506164506 63 36 0.0 0.0 0.00 0.00 0.00 42 1013.9
20260506163051 63 36 1.0 0.0 0.00 0.00 0.00 43 1014.0
20260506161550 62 35 1.0 0.0 0.00 0.00 0.00 43 1014.2
20260506160034 61 304 0.0 0.0 0.00 0.00 0.00 46 1014.1
20260506154520 60 304 1.0 0.0 0.00 0.00 0.00 48 1014.5
20260506153100 59 304 0.0 0.0 0.00 0.00 0.00 48 1014.4
20260506151608 58 304 0.0 0.0 0.00 0.00 0.00 51 1014.4
20260506150035 55 304 0.0 0.0 0.00 0.00 0.00 60 1014.6
20260506144534 52 304 0.0 0.0 0.00 0.00 0.00 66 1014.6
20260506143035 49 304 0.0 0.0 0.00 0.00 0.00 78 1014.7
20260506141517 46 304 0.0 0.0 0.00 0.00 0.00 81 1014.8
20260506140111 44 304 0.0 0.0 0.00 0.00 0.00 81 1014.9
20260506134558 42 304 0.0 0.0 0.00 0.00 0.00 82 1014.9
20260506133042 42 304 0.0 0.0 0.00 0.00 0.00 83 1014.7
20260506131538 41 304 0.0 0.0 0.00 0.00 0.00 84 1014.5
20260506130019 40 304 0.0 0.0 0.00 0.00 0.00 84 1014.5
20260506124517 40 304 0.0 0.0 0.00 0.00 0.00 84 1014.3
20260506123058 39 304 0.0 0.0 0.00 0.00 0.00 83 1014.1
20260506121556 39 304 0.0 0.0 0.00 0.00 0.00 83 1013.9
20260506120043 40 304 0.0 0.0 0.00 0.00 0.00 83 1013.8
20260506114545 40 304 0.0 0.0 0.00 0.00 0.00 82 1013.7
20260506113040 40 304 0.0 0.0 0.00 0.00 0.00 82 1013.7
20260506111540 40 304 0.0 0.0 0.00 0.00 0.00 81 1013.6
20260506110046 40 304 0.0 0.0 0.00 0.00 0.00 81 1013.6
20260506104537 40 304 0.0 0.0 0.00 0.00 0.00 81 1013.6
20260506103036 40 304 0.0 0.0 0.00 0.00 0.00 80 1013.6